Theta_e
317 318 319 318 317 316 315 315 315 316 317 317 318 318 318 318 317 317 317 317 317 318 319 320 321 322 323 323 324 324 324 325 324 325 325 325 325 325 325 324 324 324 324 323 323 323 323 324 324 323 323 322 322 321 321 320 320 321 321 321 321 321 321 321 322 322 321 321 321 321 321 321 320 319 319 319 319 320 321 321 320 320 319 319 319
315 316 318 319 319 318 316 314 315 316 317 317 318 318 318 317 317 317 317 316 316 317 318 319 320 321 322 322 323 323 324 324 324 325 325 325 325 325 325 324 324 324 324 324 323 323 324 324 323 323 323 322 322 321 321 320 319 319 319 320 320 321 321 321 321 321 321 321 321 321 321 320 320 319 319 320 320 320 320 320 319 318 318 318 318
312 313 316 318 319 319 318 315 314 314 315 317 317 317 317 316 316 316 316 316 315 316 317 318 320 321 321 321 321 322 323 324 324 325 325 325 325 325 325 325 325 324 324 324 323 323 323 323 323 323 322 322 321 321 320 320 319 319 318 318 319 319 320 321 321 321 321 321 321 321 320 320 319 319 320 321 321 320 319 319 319 318 318 318 317
312 311 312 316 318 319 319 317 315 313 313 314 314 315 315 315 315 315 314 314 315 315 316 318 319 320 321 320 321 322 323 323 324 325 325 325 324 325 325 325 325 325 325 324 324 323 323 323 323 323 322 321 321 320 320 319 319 318 318 319 319 319 319 320 320 320 320 320 320 320 320 321 321 320 321 321 320 320 320 319 318 318 319 318 317
312 311 309 312 316 318 319 318 317 314 312 312 313 313 313 313 313 313 313 313 314 314 315 317 318 319 319 320 320 322 322 323 323 324 324 324 324 324 324 324 325 325 325 324 324 324 324 323 323 322 322 321 321 320 320 319 319 318 318 318 319 319 319 319 320 320 320 320 320 320 321 322 321 321 321 320 320 320 319 319 319 319 319 318 317
311 310 310 310 313 317 318 318 318 316 313 312 311 312 312 312 312 312 312 313 313 313 314 315 317 318 319 320 321 321 321 322 323 323 323 323 323 323 323 324 324 324 324 323 323 323 323 323 323 322 322 321 320 320 319 319 319 319 318 318 318 318 318 319 319 319 321 321 321 321 321 321 321 321 320 320 319 318 318 318 319 319 319 318 317
310 309 310 311 313 316 318 318 319 318 316 314 313 312 312 311 311 311 311 311 311 312 313 314 316 317 318 319 319 320 320 321 322 322 322 322 323 323 323 323 323 323 323 322 322 322 322 322 322 322 322 321 320 319 319 318 318 318 318 319 319 319 319 319 319 319 321 321 321 321 321 321 321 320 320 319 318 318 318 318 319 319 318 317 317
310 310 311 312 314 316 318 318 318 318 318 318 317 316 315 313 312 310 310 310 310 310 310 311 313 315 316 317 317 319 320 321 320 320 321 321 321 322 322 322 322 322 322 322 322 322 322 321 321 321 321 320 320 320 319 318 318 318 319 319 320 321 321 321 321 321 321 320 320 320 321 321 320 320 320 320 319 318 318 318 318 318 316 316 316
312 312 313 314 315 317 317 318 318 318 318 319 319 319 318 316 313 311 311 310 309 310 309 309 310 311 313 313 314 315 317 317 317 317 318 320 321 321 321 321 321 321 322 322 322 322 321 321 321 321 321 320 320 320 320 319 319 319 319 320 320 321 321 321 322 322 322 321 321 321 320 320 320 320 320 320 320 319 319 318 317 316 315 315 315
313 314 315 316 316 317 317 318 318 318 318 318 319 319 319 318 315 313 312 311 310 310 310 310 310 310 311 312 312 313 313 313 313 312 313 315 317 319 320 321 321 321 321 321 321 321 321 321 321 322 322 322 322 322 322 320 319 319 320 320 320 320 320 321 321 323 323 322 322 321 321 320 320 320 320 320 320 319 318 316 316 316 315 315 315
315 316 316 317 317 317 317 317 318 318 318 318 318 318 319 319 318 315 312 311 310 310 309 310 310 310 311 312 312 313 313 312 311 310 310 311 312 314 317 318 319 320 321 321 321 321 321 322 322 322 322 322 323 323 323 321 319 319 320 321 321 320 320 321 322 323 322 322 321 321 321 321 320 320 320 320 319 317 316 315 315 315 315 314 314
316 316 316 316 317 317 317 317 317 318 318 318 318 318 318 318 319 317 314 313 311 310 310 310 310 310 310 311 312 313 313 313 311 310 310 310 311 312 314 316 317 318 319 320 320 321 321 322 322 322 322 323 323 323 322 321 321 321 321 320 321 321 322 322 323 322 321 321 321 320 320 321 321 320 319 318 316 316 315 314 314 315 315 314 314
314 314 314 314 314 315 316 316 316 316 317 318 318 318 318 318 318 318 317 315 314 312 311 310 310 311 310 311 312 312 312 312 311 310 309 309 310 311 312 315 316 317 318 319 320 320 321 322 322 323 323 322 322 322 322 320 320 320 321 320 321 322 322 322 322 321 320 321 321 320 320 320 319 317 316 316 316 315 315 314 315 314 314 314 313
313 312 312 312 312 313 313 313 314 314 315 317 317 317 318 318 318 318 318 317 316 315 314 312 310 310 310 311 311 311 313 313 311 310 309 309 309 309 310 312 315 316 318 319 319 320 321 321 322 322 322 322 322 322 321 319 318 318 319 320 321 322 322 322 322 322 321 321 321 320 319 319 317 316 316 316 316 315 315 315 314 314 313 312 311
312 311 311 312 312 312 311 311 312 312 313 314 315 316 317 317 318 318 318 318 318 318 317 315 313 311 310 310 311 312 313 313 311 310 309 309 309 308 308 310 313 314 316 317 318 319 320 321 321 322 322 322 322 320 318 319 320 319 319 320 321 322 322 322 322 321 320 320 320 319 319 318 316 316 316 316 316 315 314 313 313 312 312 311 310
312 312 312 312 312 312 312 311 311 311 311 312 312 313 314 315 316 317 317 318 318 318 318 318 317 315 313 311 310 312 313 313 311 310 310 309 309 309 308 309 310 311 313 315 317 318 319 320 321 323 323 322 321 320 317 318 320 320 320 321 322 322 322 321 321 320 319 318 318 318 318 317 316 316 316 316 315 315 313 312 312 312 311 310 309
312 312 312 312 312 312 312 312 312 311 311 311 311 312 312 312 313 315 316 317 317 318 318 318 318 318 317 315 312 311 312 313 312 310 310 309 309 309 309 308 308 309 310 312 314 316 318 318 319 320 320 321 322 320 316 316 319 321 321 322 321 321 322 321 320 318 317 318 318 318 318 317 316 316 315 315 315 314 313 312 312 311 311 310 309
311 312 312 312 311 311 311 311 312 312 311 311 311 311 311 311 312 312 313 315 316 317 317 317 318 318 318 318 316 313 312 312 312 312 310 309 309 309 309 309 308 308 308 309 311 313 315 317 318 319 320 320 318 316 315 317 321 321 320 320 319 319 321 322 320 318 318 319 319 317 317 317 316 315 314 314 314 313 313 312 312 311 310 309 307
311 311 311 312 312 311 311 311 311 311 311 311 311 311 311 311 311 311 312 312 313 314 315 316 317 317 317 318 317 316 314 312 311 312 311 310 309 309 309 309 308 309 309 308 309 310 312 315 316 318 321 319 315 315 317 319 321 320 318 318 317 316 319 321 320 319 319 320 318 317 317 317 316 315 314 313 313 313 312 312 311 311 310 308 306
310 311 311 311 311 311 310 311 311 311 311 311 311 311 311 311 312 312 311 311 311 312 313 313 315 316 316 317 317 317 315 313 311 310 310 309 309 309 309 308 309 309 309 308 308 308 310 312 313 314 316 315 314 316 319 320 319 317 316 316 315 315 317 319 319 318 319 319 318 317 316 316 315 314 313 313 312 312 311 311 311 310 308 306 304
308 309 309 309 310 310 310 310 310 310 310 310 311 311 310 311 311 312 312 312 311 311 311 311 312 313 314 315 316 316 316 315 313 311 309 309 309 309 309 308 308 309 308 308 308 308 308 309 309 309 311 313 315 317 319 319 318 315 314 316 316 316 317 318 318 318 318 318 317 316 315 315 314 314 313 312 311 311 311 311 310 309 307 305 304
308 308 307 307 308 309 309 309 308 308 309 309 310 310 310 310 311 311 312 312 311 311 311 310 311 311 312 313 314 315 315 315 315 313 311 310 309 308 309 309 308 308 308 308 308 308 308 308 309 310 312 314 316 318 318 317 315 314 316 319 319 318 318 318 317 318 318 317 316 315 315 314 313 313 312 311 310 309 310 310 309 308 306 305 303
307 308 308 307 307 307 308 307 307 306 307 307 308 309 309 309 309 310 311 311 311 311 311 310 310 311 311 311 312 313 314 314 315 314 313 312 311 310 309 309 308 307 308 308 308 308 309 309 310 312 313 313 313 313 314 314 316 317 319 320 319 319 319 318 317 317 317 316 315 314 314 314 313 312 312 310 309 309 309 309 307 306 305 302 300
305 306 307 308 307 307 307 306 306 305 305 305 306 307 308 308 309 309 309 309 310 311 311 310 310 310 311 311 311 311 312 313 314 314 313 313 312 311 310 309 308 307 307 308 309 309 309 309 309 310 311 312 312 312 312 313 315 316 316 316 316 316 317 317 316 315 314 314 313 313 313 313 312 312 311 310 309 309 308 306 305 304 302 299 297
301 303 305 306 307 307 306 306 306 306 306 305 305 305 305 306 307 308 308 308 308 309 310 310 310 310 311 311 311 311 311 312 312 313 313 313 313 312 312 310 309 308 307 308 308 308 308 309 310 311 311 311 312 313 313 313 313 314 314 314 314 314 315 316 315 314 313 313 312 312 312 312 312 311 310 309 309 308 306 305 303 301 298 296 294
298 299 300 301 303 304 304 304 304 305 305 305 305 305 305 305 305 306 307 308 308 308 308 309 309 310 310 311 311 311 310 310 311 311 312 312 312 312 311 310 309 308 307 308 309 309 309 310 312 313 312 311 311 313 314 314 314 314 314 314 314 314 314 314 314 314 313 312 311 311 311 311 311 309 308 308 307 305 304 303 301 298 295 293 291
296 297 297 297 298 299 300 300 300 301 301 302 303 304 305 305 305 305 305 306 307 307 308 308 308 308 309 310 310 310 310 309 309 309 309 309 310 310 310 309 308 308 307 308 308 309 309 310 311 311 311 310 311 312 313 313 313 313 314 314 313 313 312 312 313 313 312 312 311 311 311 310 309 308 307 306 304 302 301 299 297 294 292 291 289
296 296 296 296 296 297 297 298 298 298 298 299 300 301 302 303 304 304 305 305 306 306 307 307 307 307 307 308 308 309 309 309 308 307 306 306 307 307 308 309 309 308 308 308 307 308 308 309 309 310 310 310 310 310 311 311 312 312 312 312 311 311 310 310 310 310 309 310 310 310 309 309 308 307 306 304 301 300 298 295 292 291 290 289 289
295 295 296 296 296 296 296 297 297 297 297 298 299 299 300 301 302 303 303 304 305 305 305 306 306 306 306 306 306 307 308 308 306 305 305 304 304 304 305 307 308 308 308 307 306 306 307 307 308 308 309 309 309 309 309 310 310 311 311 310 309 309 308 308 308 308 308 308 308 308 308 307 306 305 303 301 299 298 295 292 290 289 288 288 289
295 295 295 295 296 296 296 296 296 297 297 297 298 299 299 300 301 301 302 303 304 304 305 305 306 306 306 307 306 306 306 306 305 304 303 303 304 303 303 304 306 307 307 307 305 305 305 305 306 306 306 307 308 308 308 309 310 310 310 309 309 308 307 307 306 306 307 307 306 307 307 306 304 303 301 299 297 295 292 290 288 288 288 289 290
296 295 295 295 295 296 296 296 296 296 297 297 297 298 298 299 299 300 300 301 302 303 304 304 305 305 306 306 306 306 306 306 305 304 303 302 302 303 303 303 303 305 306 306 305 305 305 305 305 305 305 305 306 306 307 307 308 308 308 309 308 307 306 306 305 305 305 304 304 305 305 304 303 302 300 297 295 293 290 288 287 288 289 289 289
296 296 296 296 296 296 296 296 296 296 296 296 296 297 297 298 298 299 299 300 301 302 302 303 304 304 305 306 306 307 306 306 305 305 304 302 301 301 302 302 301 302 303 304 305 305 305 304 304 304 305 305 305 305 306 306 306 307 307 308 307 306 306 306 306 305 304 303 303 304 303 302 301 300 298 295 293 291 289 288 288 289 288 287 286
296 297 297 297 297 297 296 296 296 296 296 296 296 296 296 297 297 298 298 299 299 301 302 303 303 304 304 305 306 306 307 306 305 305 304 303 301 300 301 301 300 300 300 302 304 304 304 304 304 304 304 304 305 305 306 306 306 307 307 307 307 307 306 307 306 305 304 303 303 303 302 301 299 297 294 292 291 289 289 289 289 288 287 286 286
295 296 296 297 297 297 297 297 296 296 296 296 296 296 297 297 297 297 298 299 299 299 300 302 304 304 304 305 305 306 306 306 305 305 304 303 301 300 299 300 300 299 299 300 302 304 304 304 304 303 303 304 304 304 305 305 306 306 306 306 305 304 304 305 305 304 303 302 301 301 301 299 296 294 292 291 289 288 289 289 288 286 286 286 285
295 295 296 296 297 297 297 297 297 297 296 296 296 296 296 297 297 297 298 299 301 301 301 302 304 305 305 305 305 305 306 306 305 304 304 303 302 300 299 298 299 299 299 299 300 301 303 303 303 303 302 303 303 303 303 304 304 304 304 304 303 302 301 302 303 303 302 301 300 300 299 296 293 291 291 290 289 288 288 287 286 285 286 285 285
295 295 295 296 296 296 297 297 297 297 297 296 296 296 296 296 297 297 298 299 300 301 302 304 305 306 306 305 305 305 305 305 304 304 303 302 301 299 299 298 298 298 299 299 299 300 301 301 301 302 302 302 302 302 302 302 302 302 302 302 302 302 301 302 302 302 301 299 299 299 296 292 290 290 290 290 289 288 287 286 285 285 285 284 284
294 294 295 295 295 296 296 296 296 296 296 296 296 296 296 296 297 297 297 298 299 300 301 303 304 305 306 305 305 305 305 304 304 303 302 301 300 299 299 299 298 298 299 299 299 299 300 300 300 300 301 301 301 301 301 301 301 300 300 300 300 300 301 301 301 300 299 298 297 296 293 290 289 290 290 289 288 286 285 285 285 284 284 284 284
293 293 294 294 294 295 295 295 296 295 295 296 296 296 296 296 296 296 296 297 298 299 300 301 302 303 303 303 303 303 303 304 303 302 301 300 299 299 299 299 298 298 298 299 299 299 299 300 300 300 300 300 301 300 300 300 300 299 299 298 297 297 298 297 297 297 297 296 295 294 291 289 289 290 290 288 286 285 284 284 284 284 284 284 285
292 293 293 293 293 293 293 294 294 294 294 294 294 294 295 295 294 294 294 295 295 295 296 297 298 298 298 298 298 298 298 300 300 300 299 298 297 298 298 298 298 298 298 299 298 298 298 298 299 299 299 300 300 300 299 299 299 299 298 297 296 295 295 295 295 294 294 294 293 291 288 288 289 289 287 286 285 285 284 284 284 284 285 285 285
290 291 291 291 291 291 292 292 292 292 293 293 293 293 293 293 293 292 292 292 292 292 292 293 293 294 294 294 294 293 294 295 296 296 295 295 295 296 297 297 297 298 298 298 299 298 298 298 298 298 298 298 298 298 298 298 298 298 297 296 295 294 293 293 293 293 294 293 291 288 288 288 288 287 285 284 284 284 284 284 284 285 285 285 284
287 288 288 289 289 289 289 289 290 290 290 291 291 291 292 292 292 291 291 291 291 291 291 292 292 292 292 292 292 292 292 293 293 293 293 294 294 295 295 296 296 296 297 297 297 298 298 297 297 297 297 297 297 296 296 296 296 297 296 295 293 292 292 292 292 292 292 290 288 288 288 287 286 285 284 283 283 283 284 285 285 285 285 284 283
285 286 286 286 287 287 288 288 288 288 288 289 289 290 290 291 291 291 291 291 291 291 292 292 292 292 292 292 292 292 292 292 292 292 292 293 293 293 294 294 295 295 295 295 295 295 296 295 296 295 295 295 295 295 295 295 295 295 294 294 292 292 291 291 291 290 290 288 287 287 287 285 284 284 284 283 283 284 285 285 285 285 284 283 283
284 285 286 286 286 287 287 288 288 288 288 289 289 289 289 290 290 290 290 291 291 291 292 292 292 292 292 292 291 291 291 291 292 292 292 292 292 292 293 293 294 294 294 294 294 294 294 294 294 294 294 294 293 293 293 293 294 293 293 292 291 291 291 291 290 288 287 287 287 286 285 284 283 283 283 284 284 285 285 285 285 284 283 283 282
284 284 284 285 285 286 286 286 286 286 286 287 287 288 288 288 289 289 289 289 289 289 289 290 291 291 291 291 290 290 290 290 290 290 290 290 290 291 291 292 292 292 293 293 293 293 292 292 292 292 292 292 292 291 291 291 291 291 291 290 290 291 290 290 289 287 287 287 286 284 283 283 283 284 284 285 285 285 285 285 284 283 283 282 282
282 282 282 282 282 282 283 283 282 282 283 283 283 284 285 284 285 285 285 285 285 286 286 287 287 288 288 289 289 289 289 289 289 289 289 289 289 289 290 290 291 291 291 291 291 291 291 291 291 290 290 290 290 290 290 289 289 289 289 290 290 290 289 288 288 287 286 285 284 283 283 284 284 285 285 285 285 285 285 284 284 283 282 282 281
280 279 279 279 279 279 279 279 279 280 280 280 280 281 281 281 281 282 282 282 282 282 283 283 284 285 285 286 286 287 287 287 287 287 287 287 288 288 288 289 289 289 290 290 290 289 289 289 289 289 289 289 289 288 288 287 287 287 287 288 288 288 288 287 286 285 284 283 283 284 284 285 285 285 286 285 285 285 284 283 283 282 282 281 281
278 278 278 278 278 278 278 278 278 278 279 279 279 279 279 280 280 280 280 280 281 281 281 281 282 282 283 283 284 285 285 285 286 286 286 286 286 287 287 287 287 288 288 288 288 288 288 288 288 288 287 287 287 287 286 286 286 286 286 286 286 286 285 284 284 283 283 283 284 284 285 285 285 285 285 285 284 284 283 283 282 282 281 281 280
277 277 277 277 277 277 277 277 278 278 278 278 278 278 278 279 279 279 279 279 279 280 280 280 280 281 281 281 282 282 283 283 284 284 284 284 284 285 285 285 286 286 286 286 286 286 287 286 286 286 286 285 285 285 285 285 285 285 284 284 283 283 283 283 283 283 284 284 284 284 285 285 285 285 285 284 284 283 283 282 282 281 281 280 279
277 277 277 277 277 277 277 277 277 277 277 277 277 277 277 277 277 277 278 278 278 278 278 278 279 279 279 280 280 280 281 281 281 282 282 282 283 283 284 284 284 284 285 285 285 285 285 285 284 284 284 284 284 284 284 284 283 283 283 283 282 283 283 283 284 284 284 284 285 285 285 285 284 284 284 284 283 282 282 281 281 280 280 279 279
278 278 278 278 278 278 278 277 277 277 277 277 277 277 277 277 277 277 277 277 277 277 277 277 277 278 278 278 278 279 279 279 280 280 281 281 282 282 282 283 283 283 284 284 284 284 283 283 283 283 283 283 283 283 282 282 282 282 282 283 283 283 283 284 284 284 284 284 284 284 284 284 284 284 283 283 282 282 281 280 280 280 279 279 278
278 279 279 279 279 278 278 278 278 278 277 277 277 277 277 277 277 277 277 277 277 277 277 277 277 277 277 277 277 277 277 278 279 279 280 280 281 281 281 282 282 282 282 282 282 282 282 282 282 282 282 282 282 282 282 282 282 282 283 283 283 283 284 284 284 284 284 284 284 283 283 283 283 283 282 282 281 281 280 279 279 279 278 278 278
Wind_Speed
25 25 24 23 22 21 20 22 24 26 26 25 26 26 26 27 28 28 29 29 30 31 33 34 36 38 39 40 40 40 41 41 41 42 43 44 44 43 43 43 44 44 44 44 44 45 47 47 47 47 46 46 45 44 44 43 43 44 44 44 44 44 44 44 45 46 43 41 39 33 28 28 31 32 32 32 31 29 28 26 25 24 23 25 27
27 27 25 24 24 24 22 20 20 22 25 26 28 28 29 29 28 28 28 28 29 30 32 32 33 35 36 38 38 39 40 41 42 43 43 44 44 44 44 44 45 45 45 45 44 44 45 46 46 45 44 45 45 44 43 43 43 44 44 44 45 45 45 45 45 46 44 42 38 35 33 34 35 34 33 33 31 27 26 26 26 25 24 25 26
28 28 27 26 25 25 24 22 20 21 23 26 29 29 30 29 29 29 29 28 29 30 31 32 33 33 35 36 37 37 37 38 40 42 43 43 44 45 45 45 45 45 45 45 44 43 44 44 45 45 43 44 44 44 43 43 43 43 43 43 43 44 44 44 44 45 44 43 40 40 39 36 35 34 33 32 29 27 26 26 26 24 24 25 25
30 29 29 27 26 25 25 24 22 21 22 25 27 28 28 28 28 29 29 29 30 30 31 32 32 33 34 35 36 36 36 35 36 39 41 42 42 43 44 46 46 46 45 44 44 43 43 44 44 43 42 43 43 43 43 43 43 42 43 43 42 42 41 42 43 42 42 42 41 41 39 34 32 33 31 30 29 27 26 26 25 24 24 25 25
33 32 31 29 27 26 25 24 23 22 23 23 24 25 26 27 28 28 29 29 30 30 31 31 32 33 34 34 35 36 36 35 35 37 39 40 40 41 42 44 45 45 44 43 43 42 43 43 43 42 42 42 43 43 43 43 43 43 42 41 42 41 40 41 42 41 40 41 41 41 38 33 31 31 30 29 28 27 27 26 26 26 25 25 24
35 35 34 31 29 27 25 24 23 22 22 23 23 24 25 26 27 28 28 29 30 30 31 31 32 33 33 33 35 36 36 36 36 36 38 39 40 39 40 42 43 43 43 43 42 42 43 43 42 42 42 43 44 44 44 44 44 42 40 39 38 38 39 40 40 40 42 43 42 40 37 34 34 33 32 31 29 29 28 27 28 29 28 26 25
37 37 36 33 30 28 26 25 23 22 21 21 22 23 24 26 27 27 27 28 29 30 31 31 31 32 33 33 34 35 35 36 36 37 38 39 39 40 40 41 42 42 43 43 43 43 43 43 43 43 44 45 45 44 42 41 41 41 39 37 35 33 35 35 35 38 41 41 40 38 38 38 37 34 33 33 33 32 31 31 31 31 29 27 26
39 38 37 34 31 29 28 26 25 24 22 21 22 23 23 24 25 25 26 26 27 28 29 30 31 31 32 33 34 34 35 36 37 37 38 39 39 40 40 41 42 42 43 44 44 44 43 43 44 44 45 45 43 41 39 37 36 36 35 33 33 34 35 34 34 36 37 38 38 38 40 40 36 32 32 34 35 36 34 33 31 28 26 26 26
40 39 37 34 32 31 30 28 27 27 25 23 23 24 25 24 23 23 24 24 25 26 27 29 30 30 30 30 32 32 34 35 35 36 38 38 39 40 40 41 42 43 44 44 44 45 44 44 44 43 43 42 39 38 37 34 34 35 34 32 34 36 36 36 37 39 38 38 38 39 41 38 32 31 33 35 35 34 31 29 27 23 22 24 25
39 37 36 34 32 31 30 29 29 28 28 27 25 25 25 25 24 23 22 22 23 24 27 28 29 29 28 27 28 29 30 31 31 33 35 36 38 39 41 42 43 43 44 44 44 44 43 43 43 42 42 41 39 39 37 32 32 34 34 32 33 34 35 36 37 39 40 42 40 38 37 35 32 33 34 33 32 30 27 26 24 22 22 23 24
35 35 35 34 34 33 31 30 29 29 29 29 28 27 25 25 25 24 22 22 22 23 26 28 29 29 28 27 27 27 27 27 28 30 32 33 35 38 39 41 42 43 44 44 44 44 43 42 41 40 40 40 40 41 38 33 33 34 34 34 35 35 36 37 37 36 37 37 35 32 32 32 32 32 31 29 28 27 27 26 24 22 22 23 23
32 33 34 34 34 34 33 32 30 29 29 29 29 28 27 27 26 25 24 23 23 24 26 27 29 30 31 32 31 29 29 29 30 31 32 33 35 37 38 40 41 42 43 43 43 42 42 42 41 40 40 39 39 40 39 37 37 35 33 35 38 38 38 39 37 34 34 33 32 32 32 31 29 28 28 27 27 25 25 24 23 23 23 23 23
32 32 31 30 29 30 31 31 30 29 28 28 29 29 29 28 27 27 27 25 26 27 28 28 30 31 32 33 32 31 31 30 30 31 32 33 34 36 38 39 40 41 41 41 42 42 41 41 41 40 40 39 39 39 38 37 37 36 35 37 38 39 39 38 36 34 35 36 36 35 33 30 28 26 24 24 24 23 23 23 22 23 23 23 22
33 29 26 24 23 22 24 25 27 27 27 28 29 30 30 29 28 28 28 29 29 29 29 30 30 31 32 33 33 32 30 29 30 31 31 32 33 35 37 38 39 41 42 41 42 42 41 41 41 40 40 40 39 38 37 35 35 36 37 38 39 39 37 35 35 35 35 35 34 33 31 30 28 25 23 23 24 23 23 23 22 22 22 22 21
31 27 23 20 19 18 19 20 22 23 24 26 28 30 31 30 29 29 29 30 31 31 31 31 31 31 33 34 35 33 29 28 30 31 31 31 32 33 35 37 39 40 41 41 42 42 41 41 41 41 40 39 38 36 36 36 34 36 39 40 40 40 39 37 36 35 35 34 33 32 31 30 28 26 25 25 24 23 22 22 22 22 22 22 22
28 25 23 21 19 18 19 20 20 20 21 23 25 27 28 30 30 31 31 32 32 32 32 33 33 33 33 34 36 35 31 29 30 31 31 31 31 32 33 35 37 39 41 41 41 41 41 41 42 42 41 40 38 35 34 34 34 36 39 40 37 35 37 35 32 32 34 34 33 33 32 30 28 27 27 25 24 23 23 24 24 24 23 23 22
24 24 23 22 20 19 20 21 21 21 21 21 22 23 25 26 28 30 32 34 34 34 34 34 35 35 35 35 37 37 34 31 31 32 32 32 32 32 33 34 36 38 39 39 40 40 41 41 42 41 41 40 39 35 34 35 36 38 39 39 35 34 35 34 31 33 34 33 34 34 33 31 30 29 27 25 24 24 25 27 26 24 24 23 22
22 22 22 21 20 20 20 21 21 22 21 21 22 22 23 24 26 28 31 33 35 36 36 36 37 37 38 38 38 39 38 35 33 33 34 34 33 33 33 34 35 37 37 38 39 40 41 42 41 41 42 42 39 36 36 38 39 37 36 36 35 36 38 37 36 36 36 35 36 36 33 31 31 30 27 25 25 26 27 27 25 24 23 22 20
22 22 22 21 20 20 21 21 21 22 22 22 22 22 22 23 24 26 29 31 33 35 36 38 39 39 40 40 40 40 40 39 37 36 36 36 36 35 34 34 36 37 37 36 37 39 41 42 42 42 43 42 38 37 39 39 39 37 36 36 37 39 39 38 37 37 35 36 38 36 32 31 31 29 27 26 27 28 28 27 25 24 23 21 20
22 23 23 22 21 21 21 21 21 22 23 23 23 23 23 22 23 25 27 29 32 34 36 37 39 40 41 42 42 42 42 41 40 39 38 37 36 35 35 35 37 38 37 37 38 39 40 41 42 43 43 42 39 38 39 39 38 36 36 37 39 38 37 37 37 36 35 36 36 34 31 30 30 29 28 28 30 31 30 28 26 23 22 20 20
23 23 24 24 23 22 21 20 20 21 21 23 23 23 22 22 22 23 25 27 29 32 34 36 38 39 41 42 44 44 44 43 42 41 39 37 35 35 36 37 37 37 37 38 38 39 39 39 40 41 41 40 38 37 39 39 38 37 37 37 36 34 34 36 37 37 37 37 35 32 31 31 31 30 30 31 32 32 31 28 25 23 22 21 21
25 25 25 25 25 24 23 22 22 22 22 22 23 23 21 20 21 22 23 25 27 29 32 34 36 38 39 40 42 43 44 44 43 41 39 36 34 33 36 38 37 35 37 39 39 39 39 38 37 36 36 37 38 39 41 40 38 38 39 38 36 35 35 38 39 38 39 39 35 33 32 33 33 32 32 33 33 32 30 28 25 23 22 22 21
26 26 26 26 26 25 25 25 25 25 25 25 25 25 23 21 20 20 21 22 24 26 29 31 33 35 36 37 38 39 41 42 42 41 38 35 34 33 34 36 36 35 36 38 39 38 37 36 36 36 36 37 38 39 39 37 36 38 37 35 36 36 37 39 40 39 39 38 35 33 34 34 35 35 35 35 34 32 29 27 24 23 23 21 20
27 27 27 27 27 27 27 27 27 28 28 28 29 28 28 26 24 22 21 21 22 24 26 28 31 33 34 35 35 35 37 38 39 39 38 35 34 33 34 35 35 36 37 38 38 36 35 34 33 32 32 32 32 32 32 33 36 37 36 34 34 35 36 38 39 38 36 35 34 34 35 36 36 36 36 35 33 30 28 26 25 24 23 21 19
28 28 28 28 28 28 28 28 28 29 29 30 31 31 31 31 29 28 26 25 24 24 24 25 27 29 31 33 33 34 34 35 36 37 36 35 33 33 34 34 34 35 37 38 37 35 34 32 31 31 30 29 30 32 33 35 37 38 38 38 38 37 38 39 39 38 36 34 33 34 36 37 38 37 36 33 31 30 28 27 26 25 23 21 20
29 29 29 29 29 29 29 29 29 29 29 30 31 33 33 33 33 32 31 31 30 28 26 26 26 27 29 30 32 33 33 34 34 34 35 34 33 32 33 33 33 33 35 37 36 35 34 32 31 32 31 29 30 33 35 37 39 40 41 41 40 40 41 41 42 42 40 37 35 36 38 39 39 37 34 32 31 30 28 27 27 25 23 21 20
30 30 29 28 28 28 28 29 30 30 30 31 31 32 33 34 35 35 34 33 33 33 31 30 29 29 30 30 31 32 33 33 34 33 33 33 32 30 30 30 31 31 33 35 36 36 35 35 34 34 33 31 30 31 31 32 35 37 38 39 38 38 37 39 41 42 40 36 36 39 40 40 39 36 34 32 31 29 27 26 25 24 23 22 20
31 31 30 30 29 28 28 29 30 31 31 32 33 33 34 34 35 35 34 34 34 34 34 34 33 32 32 32 32 33 33 33 33 33 32 32 31 29 28 28 29 30 31 32 34 36 37 37 37 37 36 34 33 33 34 35 37 39 39 38 38 37 37 39 41 40 37 36 38 40 41 40 38 36 34 33 31 29 28 27 25 24 23 21 19
34 34 34 34 33 32 31 31 31 31 32 33 33 34 34 35 36 36 35 33 33 34 34 35 35 33 33 33 33 34 35 34 32 31 32 32 31 29 26 26 27 29 29 28 29 34 38 39 39 40 39 38 37 37 38 39 42 43 41 40 40 40 41 43 43 42 40 39 39 39 39 38 37 36 34 32 30 29 28 27 25 23 22 20 18
38 38 38 37 37 37 36 35 34 33 34 34 35 35 34 35 36 37 37 35 34 34 34 35 35 34 34 35 33 33 34 34 32 31 31 31 30 28 26 24 24 27 28 27 26 30 35 38 41 42 42 42 41 40 40 40 41 42 42 41 43 44 43 43 43 42 41 40 39 38 37 37 37 36 34 32 30 29 28 26 25 23 22 20 19
39 40 40 40 40 40 40 39 39 37 36 36 37 37 37 37 36 37 38 38 37 36 36 36 35 34 35 36 35 34 33 33 32 31 30 29 29 27 25 23 23 24 25 26 27 29 31 34 38 40 41 42 42 40 40 40 42 43 44 44 45 44 43 42 42 41 40 40 39 37 36 37 37 36 34 32 31 30 29 27 25 23 21 20 19
39 40 41 41 42 41 41 42 42 41 40 39 39 39 40 41 40 38 38 38 39 39 38 38 37 36 35 35 36 37 36 33 32 31 29 28 28 26 24 23 23 23 23 25 28 31 32 33 37 39 39 41 41 40 39 41 44 46 46 45 45 45 44 43 42 41 40 39 38 37 36 36 36 34 33 32 31 30 30 29 27 25 23 21 19
39 40 41 42 43 43 43 43 44 44 43 43 41 40 41 42 43 43 42 40 39 39 39 38 39 39 38 36 36 37 37 35 33 32 30 28 27 25 24 22 22 23 24 27 31 33 34 35 37 39 41 41 41 40 40 42 44 46 45 44 46 47 47 45 44 42 41 40 39 38 38 37 35 34 33 31 30 30 30 29 27 26 24 22 20
40 41 41 42 43 43 44 44 45 45 44 44 44 43 42 41 42 44 45 45 43 42 41 39 39 40 39 38 36 36 36 35 33 32 31 29 27 24 23 22 23 24 27 31 34 34 35 36 37 39 41 41 40 40 40 42 43 44 44 45 46 47 46 46 44 43 41 41 40 39 38 36 35 34 33 32 31 30 29 29 28 26 24 21 19
41 42 42 42 42 43 44 44 45 45 45 45 44 44 44 43 42 42 43 44 45 46 45 43 41 41 41 39 38 37 35 33 32 31 30 29 27 23 22 25 27 28 31 35 36 36 36 37 37 38 40 40 41 41 42 43 44 45 45 45 45 46 45 45 44 43 42 42 41 40 38 36 35 33 32 32 32 31 30 29 27 25 22 20 18
42 43 43 43 43 43 44 44 44 45 45 45 45 44 44 44 44 43 43 43 44 45 46 44 43 42 42 41 40 39 36 33 31 30 28 27 25 23 24 29 31 33 35 38 39 39 39 38 38 38 39 40 42 42 43 44 46 46 46 46 46 46 46 45 44 43 43 43 42 40 38 37 36 33 31 31 31 31 30 28 26 23 21 19 17
41 42 43 43 43 43 44 44 44 44 44 45 45 45 44 44 44 43 43 43 44 45 45 45 44 43 43 42 41 40 38 34 31 29 27 26 25 25 28 31 33 35 38 39 39 40 41 40 40 40 41 41 42 43 44 45 46 46 46 46 47 47 47 47 46 45 45 45 42 39 38 38 36 33 32 32 32 31 29 26 24 23 21 19 17
40 41 41 41 41 42 43 43 43 43 43 44 43 43 43 43 43 42 42 43 43 44 45 45 44 44 44 42 40 39 38 36 33 31 28 25 25 27 30 32 33 36 39 39 39 40 40 40 41 42 42 42 42 43 44 45 45 45 46 46 46 47 47 46 46 45 45 43 40 38 38 38 36 33 33 33 32 30 28 25 23 22 20 18 16
41 41 42 41 41 41 42 42 43 42 42 43 43 42 42 42 41 40 40 41 41 42 42 43 43 43 42 40 39 37 36 35 34 31 28 26 25 26 28 30 33 36 38 40 40 40 40 40 40 41 42 43 43 43 44 44 44 45 45 46 46 46 46 46 45 44 42 40 38 38 38 37 35 34 33 32 30 28 26 24 22 19 18 17 16
40 41 41 41 41 41 41 41 42 42 42 42 42 42 43 42 41 40 39 39 40 41 40 40 41 41 39 38 36 34 34 35 33 30 28 27 26 25 26 28 31 33 36 38 40 40 40 40 40 41 42 43 43 43 43 42 42 43 44 45 45 45 45 45 45 43 40 38 37 38 38 37 35 34 33 30 27 25 23 21 20 18 16 16 16
38 39 40 39 39 40 40 41 41 40 40 41 41 41 41 41 41 40 39 39 40 40 40 40 41 40 38 36 35 32 32 33 32 30 29 28 28 27 27 28 29 31 33 35 38 40 40 40 40 41 41 42 42 42 42 41 42 42 43 43 43 44 44 44 42 40 38 37 37 38 38 36 35 33 31 28 25 23 22 20 19 18 17 17 17
36 37 37 36 36 37 38 38 39 38 38 38 38 38 38 38 38 38 38 39 39 40 40 41 41 40 37 36 34 32 31 31 31 30 30 29 29 29 29 29 30 31 33 34 36 38 39 39 40 40 41 41 41 41 40 40 40 41 42 42 43 44 43 42 40 38 37 37 38 38 37 35 33 31 29 27 25 23 21 19 18 18 17 17 18
34 35 35 34 34 34 34 35 35 36 36 37 37 37 36 36 36 36 37 38 38 38 39 40 40 39 37 35 33 31 31 30 30 31 30 30 30 30 31 31 31 32 32 34 35 37 38 38 38 38 39 39 39 39 39 39 40 40 40 41 41 42 41 40 38 38 37 37 37 36 35 33 31 29 27 25 24 22 21 19 19 18 17 18 18
32 32 32 33 33 33 33 33 33 34 34 34 35 35 35 35 35 35 35 35 36 36 36 37 38 37 37 36 34 32 31 30 30 31 31 30 30 31 32 32 32 31 32 33 34 35 36 36 36 36 36 36 36 36 36 37 38 38 38 39 39 39 38 38 38 37 37 36 36 34 32 30 29 28 26 25 23 22 20 19 18 18 18 19 19
30 30 30 30 30 30 30 30 29 30 30 31 31 32 32 31 32 32 31 31 32 32 33 34 34 35 35 34 33 32 31 30 30 30 30 30 30 31 31 31 31 31 31 31 31 32 32 32 32 32 32 32 32 33 33 34 34 34 34 35 35 35 35 35 34 33 33 32 32 30 29 28 27 26 25 23 22 21 19 18 18 18 18 19 20
25 26 26 26 25 25 25 25 25 26 26 27 27 28 27 27 27 27 27 27 28 28 29 29 30 31 31 31 30 30 29 29 29 29 29 29 30 30 30 30 30 29 29 29 28 28 28 27 27 27 28 29 29 30 30 31 31 30 29 29 29 29 29 29 29 29 29 28 28 27 27 26 25 24 23 22 21 19 18 18 17 18 19 20 20
20 20 21 21 21 22 23 23 23 23 23 24 24 24 24 23 23 23 23 23 23 24 25 26 27 28 28 28 28 27 27 26 26 26 27 27 28 28 28 28 27 26 26 25 24 23 23 23 23 23 24 25 25 26 26 26 25 25 24 24 23 24 25 26 27 27 27 26 26 26 25 24 23 22 21 21 20 19 18 18 18 19 19 20 21
16 17 18 18 19 20 21 21 21 21 21 21 21 21 20 20 19 19 19 19 19 20 21 22 23 24 24 25 25 24 24 24 24 24 24 24 24 24 24 24 23 22 21 20 19 18 18 18 18 18 19 19 21 22 23 22 22 22 22 22 23 24 25 26 26 26 26 25 25 24 23 22 21 21 20 20 19 18 18 18 19 20 21 21 21
14 14 15 15 16 17 18 18 19 19 19 19 19 18 17 17 16 16 16 16 16 17 17 18 19 19 19 20 20 20 19 19 19 19 19 19 19 19 19 18 17 16 15 14 14 14 14 13 13 14 15 16 17 18 19 20 21 22 23 24 24 25 25 25 25 25 24 24 24 23 22 21 20 19 19 18 18 18 18 18 19 20 21 21 21
16 16 15 16 16 16 16 16 16 16 16 16 16 16 16 15 15 15 15 15 14 14 14 14 14 15 15 15 15 15 15 15 15 14 14 14 14 14 13 12 11 10 10 10 10 11 12 12 13 14 16 17 18 19 20 21 22 22 23 23 24 24 25 25 24 24 23 23 22 22 21 20 19 18 18 18 18 18 19 19 20 20 20 20 20
18 18 19 19 19 20 20 20 20 19 19 19 19 18 17 17 17 16 16 15 14 13 12 12 12 11 11 11 11 11 11 11 10 10 9 9 8 8 8 7 7 7 8 9 11 12 14 15 17 18 19 20 21 21 22 22 22 23 23 23 24 24 24 23 23 22 22 21 20 19 19 18 18 17 17 17 18 18 19 19 19 19 19 19 19
Wind_Direction
341 338 339 339 336 327 311 294 284 279 276 274 275 278 280 280 280 280 278 275 273 269 263 260 259 257 257 257 258 259 259 259 258 257 256 255 254 254 254 254 254 256 256 255 255 255 254 252 251 252 253 253 253 252 252 251 249 248 247 247 247 248 249 250 254 258 261 263 264 263 259 260 266 265 260 260 262 263 264 263 263 266 269 268 267
338 334 331 331 333 335 328 312 295 283 276 274 275 279 281 282 281 278 275 275 274 271 267 265 262 260 258 257 258 258 258 258 258 257 255 254 254 253 253 253 255 257 258 257 257 256 255 253 253 255 256 256 255 254 254 253 252 251 249 248 249 250 251 252 254 256 258 259 259 259 262 267 268 264 261 261 261 261 260 261 264 266 266 264 261
334 333 329 325 325 330 332 325 308 291 282 276 276 279 281 281 280 277 276 276 274 272 269 267 264 262 260 259 260 260 259 259 257 255 254 254 254 253 253 253 255 257 259 259 258 257 256 256 256 257 257 257 257 256 256 256 254 254 254 252 251 251 251 252 253 254 256 257 259 262 264 266 266 264 262 261 258 257 259 263 266 266 263 260 255
327 329 328 324 320 322 327 328 317 300 291 285 281 280 281 282 281 280 279 277 274 273 270 268 266 264 262 262 262 261 261 261 259 256 255 254 254 253 253 254 255 257 258 258 258 257 257 257 258 259 258 257 258 258 257 257 256 255 255 254 254 254 252 252 252 253 256 259 261 261 260 261 265 265 261 258 256 257 260 265 268 268 267 261 253
320 324 325 324 318 316 319 324 320 307 296 293 291 288 285 284 283 282 282 280 277 274 272 269 267 265 264 263 263 263 264 264 262 260 257 256 255 254 253 253 255 256 257 257 257 256 257 258 259 259 257 257 257 257 257 257 257 257 255 252 252 252 252 253 253 253 256 258 259 260 260 260 263 264 262 260 258 260 261 264 269 271 271 263 253
316 319 321 321 318 313 311 314 317 312 300 294 294 293 291 289 286 285 284 284 282 278 275 272 269 267 267 264 263 264 264 264 262 260 259 258 257 256 253 252 253 254 255 256 256 256 257 258 259 259 257 256 255 254 255 255 256 257 256 254 253 251 248 249 251 251 254 257 259 260 261 260 259 259 262 263 265 267 266 265 266 268 268 262 253
313 315 317 318 316 311 306 305 308 311 307 301 298 296 294 292 290 289 287 285 285 283 280 277 273 270 269 267 265 265 263 262 261 260 260 259 259 257 253 251 252 253 254 255 256 257 257 258 259 260 258 257 256 255 256 255 254 253 252 252 251 248 245 245 247 250 254 256 257 258 258 256 255 255 257 262 266 266 263 261 263 267 268 263 254
311 312 313 314 313 309 304 301 300 302 305 305 304 303 300 294 291 290 288 287 287 287 285 283 278 274 271 269 268 266 263 262 262 262 262 261 259 258 255 253 252 253 254 255 256 257 258 259 260 259 258 258 257 257 259 258 255 253 251 248 246 247 247 247 249 250 251 252 252 253 255 254 252 253 256 260 262 263 262 263 266 270 270 262 253
310 311 311 311 310 308 305 302 298 297 298 299 300 302 302 299 294 289 288 290 290 289 288 286 283 277 273 271 270 267 265 264 265 266 265 263 261 260 259 258 257 256 256 256 257 258 259 261 262 261 261 260 259 261 263 262 257 254 252 249 248 251 251 251 253 253 252 251 249 250 252 252 250 253 256 259 263 266 266 266 267 268 263 255 251
311 312 312 311 310 309 307 305 301 298 296 296 294 294 295 296 295 291 288 288 289 288 286 285 283 280 276 274 273 271 271 272 273 272 270 267 265 263 262 261 261 261 260 260 260 260 261 262 262 263 264 264 265 265 262 262 260 255 252 252 251 251 250 251 254 256 255 253 250 250 252 251 252 257 260 262 265 267 267 266 266 263 254 249 249
311 312 312 312 311 309 308 307 305 302 299 298 295 292 290 289 289 289 285 283 282 282 281 282 281 279 276 275 274 274 276 278 278 277 275 272 269 265 263 262 260 260 261 262 262 263 264 264 263 264 264 263 264 263 260 263 264 256 253 254 252 248 248 250 255 258 258 255 251 251 252 253 257 261 261 261 260 262 265 264 260 255 250 249 249
309 310 311 312 311 309 307 306 304 303 302 300 297 294 291 287 285 284 281 278 276 274 275 276 276 274 273 273 273 274 277 279 278 278 277 275 271 267 264 262 260 259 259 260 261 263 264 264 264 265 264 262 261 261 261 265 265 258 254 255 254 253 253 252 251 254 257 256 252 252 252 254 257 259 258 260 261 262 262 259 253 250 248 248 249
309 311 311 311 310 308 307 306 304 302 298 296 295 293 292 290 288 286 282 278 273 270 271 271 270 270 271 271 271 274 277 279 280 279 278 275 272 269 265 263 261 261 261 260 261 262 262 263 263 263 262 262 260 259 260 262 261 257 254 255 256 259 260 255 248 249 253 252 249 251 251 251 254 258 261 264 261 256 254 252 248 245 244 246 250
310 311 311 312 312 310 306 304 304 302 297 293 291 290 290 290 289 287 285 283 280 276 273 271 268 268 269 269 270 271 274 278 280 280 278 276 273 270 267 264 262 261 261 260 260 261 261 261 262 262 262 261 259 257 258 258 258 253 250 252 255 257 258 252 244 246 250 247 245 249 250 249 253 258 260 260 257 253 252 250 245 240 241 246 251
305 307 308 312 315 315 312 308 307 305 301 296 292 290 290 289 287 284 282 282 282 281 280 278 274 270 268 268 268 268 270 275 277 277 277 276 274 271 268 265 262 260 259 258 258 259 259 260 262 261 261 260 259 257 256 256 256 252 250 254 257 254 251 246 239 242 248 250 251 254 252 249 252 254 255 257 257 253 248 243 240 238 241 247 252
298 301 305 310 314 315 316 316 314 313 309 304 299 297 294 291 288 285 282 280 279 279 279 280 279 277 273 270 268 266 268 272 274 275 275 275 274 273 270 267 264 262 260 257 256 257 257 259 260 260 260 260 259 257 254 252 252 252 254 258 257 254 250 243 237 243 251 253 255 255 251 250 251 251 253 254 254 250 242 236 237 239 244 249 253
295 299 303 308 312 314 314 314 314 314 314 312 308 304 300 296 293 288 285 282 280 279 278 277 277 278 277 274 271 268 267 268 271 273 273 272 272 272 271 269 267 265 262 259 257 255 255 256 257 258 257 257 257 255 251 250 250 250 252 252 250 251 250 242 241 252 257 254 252 249 247 248 250 251 251 250 249 247 241 237 240 244 248 251 252
295 297 300 305 311 314 314 313 312 312 313 313 312 310 306 301 297 292 289 286 284 282 280 278 276 276 276 276 274 271 268 267 268 270 271 270 270 269 269 270 268 266 264 263 259 256 253 254 255 256 256 256 255 251 249 252 252 248 245 244 244 247 247 242 244 251 252 250 246 241 240 245 248 250 251 248 246 246 243 241 244 247 250 251 250
295 296 299 303 306 310 312 312 312 313 312 312 311 311 309 306 302 297 293 290 288 285 283 281 279 278 277 276 275 273 269 266 264 266 268 269 269 267 266 267 267 267 266 265 262 258 255 253 252 252 254 255 251 247 248 251 250 247 245 246 246 245 244 244 245 246 247 249 245 239 239 245 247 248 248 244 241 242 243 244 244 246 248 248 244
299 300 302 303 303 306 308 308 309 311 312 312 311 310 310 310 309 306 301 296 293 289 286 284 282 281 280 279 278 277 274 270 266 266 268 270 270 269 266 264 265 267 267 266 263 260 257 255 253 252 252 252 249 247 248 249 249 249 249 248 247 244 244 246 249 249 249 248 244 241 243 246 245 245 245 240 236 237 240 243 242 242 242 241 238
307 306 307 307 307 308 309 308 308 308 309 310 310 310 312 312 312 312 311 308 304 299 294 291 287 285 283 281 281 281 281 279 276 273 273 274 274 272 268 266 265 266 266 266 265 263 260 258 256 254 252 252 251 249 250 251 252 252 249 248 249 248 245 247 251 251 246 242 240 240 242 242 241 242 240 236 234 236 240 241 238 236 237 236 235
310 310 312 314 314 313 313 313 314 313 312 310 308 309 312 313 312 311 313 314 313 311 307 302 297 293 289 285 283 282 283 284 283 282 280 278 276 274 272 269 266 264 264 265 265 265 264 262 262 261 258 256 254 252 253 255 255 251 247 245 246 245 244 247 249 245 239 236 235 236 237 239 239 237 235 232 232 236 239 236 232 232 234 235 234
311 311 313 314 316 317 317 319 321 321 321 319 315 312 312 312 311 311 312 312 312 313 314 313 309 304 300 295 291 286 285 285 286 287 287 282 277 273 272 271 268 263 262 264 264 265 266 266 266 265 263 260 259 257 255 254 252 250 246 243 242 241 242 243 242 237 234 233 232 232 236 239 238 235 231 230 232 234 234 230 229 231 230 229 228
311 311 311 312 313 315 318 320 323 325 326 325 323 321 319 317 314 313 312 311 310 311 314 315 313 312 309 306 303 298 293 290 288 288 289 287 280 273 269 269 267 263 261 261 262 263 266 267 269 269 268 266 266 264 258 251 250 252 250 246 245 244 242 241 238 233 231 230 230 234 238 240 238 234 231 231 232 231 228 226 228 227 225 223 222
310 310 311 311 311 312 314 316 319 322 324 325 326 326 326 325 321 318 316 314 313 312 312 312 312 311 311 312 311 309 304 298 294 290 288 287 283 277 271 267 265 262 260 260 260 261 264 267 271 273 272 268 267 267 261 253 250 250 250 248 247 244 241 240 239 235 231 231 234 240 243 240 236 232 230 230 229 225 223 224 224 221 217 213 212
310 310 310 310 309 309 310 311 313 316 318 320 322 324 326 327 326 324 322 320 317 315 314 313 310 308 308 311 312 312 308 303 299 295 292 289 286 280 274 269 264 261 259 259 259 259 260 262 264 266 267 266 266 267 264 257 249 246 245 244 243 241 239 238 237 236 235 238 243 246 242 236 231 228 226 225 223 221 222 222 220 215 210 207 206
308 308 308 307 306 307 307 308 310 313 314 316 318 319 322 324 325 326 327 325 322 318 316 314 312 310 310 310 309 309 308 305 303 302 300 297 293 286 278 272 266 261 258 257 255 255 256 257 257 259 261 262 261 261 261 258 253 249 248 244 241 241 242 242 241 238 238 242 245 242 236 230 227 225 222 220 218 218 219 218 214 210 205 201 200
306 307 309 309 308 307 307 307 309 311 313 315 316 316 318 319 320 322 325 326 324 321 317 315 313 313 312 309 308 307 306 306 307 307 305 301 297 292 286 279 271 263 257 255 254 254 254 254 255 256 256 255 254 253 254 256 255 253 251 247 245 247 249 248 244 238 236 238 238 233 228 225 224 222 219 216 214 215 213 210 208 207 203 199 197
310 311 311 311 310 309 308 307 308 309 310 311 312 313 314 315 316 317 320 322 322 321 319 317 317 315 311 308 307 306 305 306 307 305 301 298 297 296 293 285 275 265 259 255 252 253 253 253 253 253 251 249 248 248 250 252 251 248 246 247 250 251 249 244 239 234 232 232 230 227 225 223 221 219 216 213 211 211 210 206 204 202 198 194 194
315 314 314 313 312 311 310 309 308 308 307 308 308 308 308 310 311 312 314 316 317 318 318 318 318 317 313 310 307 304 303 304 303 301 299 298 298 298 296 289 278 268 262 257 250 248 250 252 253 253 252 250 247 245 245 246 245 243 243 246 249 248 244 239 234 231 230 229 226 226 226 224 220 217 215 212 209 207 205 202 200 198 195 192 189
315 314 314 313 312 311 310 309 309 308 307 306 306 305 304 303 304 306 308 310 311 312 314 316 317 316 314 313 311 307 304 304 302 299 298 298 297 298 296 291 282 271 263 258 254 250 249 250 251 252 253 253 251 248 246 246 246 245 246 245 243 241 239 237 233 230 228 226 224 223 223 222 220 217 214 211 208 204 199 196 195 195 192 188 185
314 313 312 311 311 310 309 308 308 307 306 306 305 304 304 302 300 299 300 302 304 306 308 310 312 313 313 313 312 310 309 308 305 301 297 295 294 295 292 287 283 276 265 255 251 250 247 247 250 251 251 251 251 250 249 249 248 246 244 241 239 237 235 234 233 231 229 227 225 222 220 219 219 218 214 210 206 202 196 192 191 190 186 182 181
313 312 311 310 310 309 309 308 307 306 306 306 305 304 304 303 301 299 297 296 297 298 301 303 305 307 309 310 310 309 309 309 307 303 299 294 291 290 287 281 277 275 267 254 247 245 244 246 250 253 253 252 251 251 251 249 247 244 242 242 242 240 235 231 229 228 228 227 225 222 219 218 217 214 210 207 204 201 196 190 188 186 183 182 181
311 310 309 309 308 308 307 307 307 306 306 306 306 305 304 303 303 302 300 298 296 294 295 297 299 301 304 305 306 306 306 306 305 303 300 294 289 286 283 275 268 267 265 259 252 248 246 246 248 251 252 252 252 251 250 247 244 241 242 243 241 236 231 227 225 223 223 223 221 219 218 217 214 210 206 204 201 198 194 189 185 183 183 184 183
308 307 307 306 306 306 306 305 305 305 305 305 304 304 304 303 303 302 301 300 298 296 295 295 296 297 299 301 302 303 303 302 301 299 297 293 288 282 276 268 262 259 259 259 256 252 249 248 248 249 250 251 252 251 249 247 244 242 243 242 237 231 227 225 223 222 221 219 217 216 217 215 211 206 205 203 199 194 190 186 184 183 185 185 184
305 305 305 304 304 304 303 303 303 303 303 303 302 302 302 302 302 301 300 299 298 297 296 295 294 294 295 296 298 300 301 300 297 294 291 288 283 274 265 261 260 258 258 259 259 257 253 251 249 249 249 250 250 250 249 247 246 244 243 241 237 233 230 227 225 223 221 217 214 213 212 209 205 203 202 201 196 191 188 185 183 184 185 185 185
301 301 301 301 301 301 300 300 300 299 299 299 299 299 299 300 300 300 299 298 297 297 296 296 295 294 293 294 295 297 298 297 294 290 286 282 276 267 259 257 258 259 261 262 263 262 260 256 252 250 249 248 249 249 248 246 244 242 240 237 234 233 231 229 228 225 219 214 211 209 207 205 202 199 198 195 192 188 186 185 184 183 184 185 188
299 299 298 298 297 297 296 296 296 296 296 296 296 297 297 297 297 297 297 296 296 296 295 296 296 295 295 297 298 298 297 296 292 289 286 281 274 267 263 259 257 258 261 264 266 266 264 262 258 255 252 251 249 248 247 245 243 241 239 236 233 231 229 226 223 219 214 211 209 206 203 201 198 194 191 190 189 186 184 185 185 185 186 189 194
299 298 298 298 297 296 295 295 294 293 293 294 294 295 295 296 296 296 295 295 295 295 295 295 295 295 296 299 301 302 300 298 295 292 289 285 278 272 269 265 261 260 261 263 265 266 265 264 262 259 256 254 251 249 247 246 244 242 241 238 233 229 226 222 218 213 211 210 207 203 201 198 192 186 185 187 188 186 184 185 187 190 194 197 199
299 298 298 298 298 298 297 296 295 294 293 293 293 294 295 295 295 295 295 295 294 294 294 293 293 294 296 299 301 302 301 299 297 295 292 289 284 278 274 271 269 267 266 266 266 266 265 264 262 260 257 256 253 250 248 245 243 242 240 237 232 228 223 219 215 212 210 207 203 200 197 192 185 181 181 183 185 185 185 186 190 195 202 205 205
301 300 299 299 300 299 299 298 297 297 296 295 295 295 295 296 297 298 297 296 295 294 293 292 291 292 294 296 297 298 297 295 294 292 290 289 286 282 278 276 275 274 272 269 268 266 264 263 262 260 258 256 253 250 247 244 242 239 237 234 229 224 218 214 212 210 206 202 199 197 192 186 180 179 179 180 181 183 186 191 197 200 204 208 211
301 300 300 300 300 299 298 298 298 298 297 297 296 297 297 297 298 298 298 297 296 295 294 292 291 291 290 290 291 291 290 289 288 287 286 286 285 282 280 278 276 274 272 269 267 264 262 261 260 259 257 255 252 249 246 242 240 237 235 231 225 219 214 212 209 206 202 197 194 192 187 181 177 178 178 180 183 187 192 197 202 205 207 210 212
297 297 297 297 296 294 292 292 292 291 291 292 293 293 294 294 295 295 295 294 294 294 293 293 292 290 288 286 286 285 284 283 282 282 282 282 281 280 278 276 274 273 272 269 266 263 260 258 258 257 256 254 252 249 246 243 239 235 230 225 219 214 212 210 206 202 198 194 190 187 182 178 175 176 179 183 188 194 199 202 204 208 211 212 212
294 293 292 291 290 288 287 287 287 286 287 287 287 288 289 289 290 290 291 291 291 291 290 289 288 287 286 284 283 282 281 279 279 279 279 279 278 276 275 274 272 271 270 267 264 260 257 256 255 255 254 252 250 248 245 240 236 231 226 221 216 212 211 209 205 200 196 190 185 181 179 177 176 179 184 190 195 200 202 204 205 209 211 212 211
295 294 293 292 291 290 289 289 290 290 290 290 289 289 289 290 290 290 291 291 291 290 289 288 286 285 283 282 282 282 281 279 279 279 279 278 276 274 273 272 270 269 267 264 261 258 256 254 254 253 253 251 249 245 240 234 229 225 222 220 217 214 211 207 202 195 189 185 182 181 181 181 183 187 192 196 200 202 203 205 207 209 211 212 210
300 299 298 298 298 297 297 297 296 295 295 296 295 295 295 295 295 294 294 293 292 291 290 290 288 287 285 284 284 284 283 282 282 281 280 277 274 272 270 268 267 266 264 261 259 256 254 253 253 252 251 248 244 238 232 226 222 218 216 216 217 215 208 199 191 184 181 182 185 187 189 190 192 194 197 199 201 201 202 204 206 207 208 209 208
310 308 305 304 304 303 303 302 301 300 299 298 297 298 298 298 297 296 296 296 295 295 295 294 293 291 289 288 287 286 285 284 283 281 279 276 272 269 266 263 262 262 260 259 257 256 254 253 251 248 245 242 236 229 224 219 216 214 210 207 204 198 189 181 177 178 181 186 191 195 198 200 200 199 199 199 199 199 201 202 203 204 206 206 206
328 324 321 318 316 313 312 311 309 307 305 303 301 301 300 300 300 301 301 302 303 303 302 300 299 296 294 292 291 289 288 286 283 280 277 274 270 266 263 260 259 258 257 256 255 253 250 247 243 239 235 232 228 223 217 211 206 200 191 183 177 175 173 175 179 185 189 193 198 202 205 206 204 201 199 198 198 200 201 202 203 204 204 204 204
357 350 344 341 338 335 333 330 326 322 318 315 313 311 309 308 309 310 312 313 313 311 310 308 305 302 299 297 295 293 290 288 284 281 277 273 269 265 261 258 256 254 252 250 246 241 234 227 222 218 215 211 207 202 196 189 183 177 172 168 168 172 178 184 189 193 197 201 205 207 207 205 201 199 198 197 198 199 201 202 204 204 203 202 203
30 27 23 19 16 13 8 3 357 352 346 341 337 334 332 329 327 327 327 327 325 322 319 315 311 307 304 300 298 295 291 287 283 279 274 269 263 257 252 248 244 240 235 228 220 211 200 191 184 182 180 177 172 169 167 166 167 169 171 175 179 184 188 192 195 199 203 206 206 206 205 203 200 198 197 198 198 199 200 202 202 202 202 202 202
40 38 37 36 35 33 31 29 26 24 20 17 13 10 7 3 359 356 353 350 347 342 337 332 326 320 312 305 300 296 291 284 278 272 263 253 240 227 216 208 203 197 191 185 178 170 164 161 158 157 158 158 158 160 164 169 174 179 184 187 191 194 196 198 200 202 203 203 203 202 202 201 199 199 199 199 199 199 200 200 201 201 201 200 199